STARLINK-4557, 53432

Orbit data source: Space-Track

STARLINK-4557, 53432 is a payload satellite owned by SpaceX/Seattle (US) in LEO that was launched on Wed, 10 Aug 2022 UTC via an FALCON 9 launch vehicle from the Air Force Eastern Test Range (AFETR). Payload-class satellites include a variety of spacecraft equipped with specific instruments for various scientific and technological missions. These include communications satellites like Starlink; space stations such as the ISS; scientific satellites like the Hubble; Earth observation satellites from companies like Planet Labs, Umbra, and HawkEye 360; GPS; miniature CubeSats for education and research; and military/defense satellites.

Loading next visibility...
Identifier
53432, 2022-097AW
Orbit
LEO
Country
Flag of USUS
Related business
Manufacturer
SpaceX/Seattle
Mission
Operational Commercial Communications
Bus & Motor
STARLINK, Unknown motor
Mass
297 kg wet, ~275 kg dry
Launch date (UTC)
2022-08-10 (4 years ago)
Launch vehicle
FALCON 9
Launch site
Air Force Eastern Test Range (AFETR)
Object type
Payload
Rocket body
Debris
Shape & HBR
Box + 1 Pan, 10.1 m
Radar Cross Section
13.562 m², Large (>1 m²)

Expand to show TLE details & history
Last TLE update: 22 hours ago

TLE from 22 hours ago
0 STARLINK-4557
1 53432U 22097AW  26144.11379973  .00000334  00000-0  39105-4 0  9996
2 53432  53.2163 125.2889 0001269  75.3503 284.7629 15.08836215210173
Epoch: 2026-05-24T02:43Z
TLE epoch observation values (Epoch: 2026-05-24T02:43:52.296Z)
Latitude
-0.00009°
Longitude
-157.39967°
Altitude
540.429 km
Speed
7.593 km/s
True Right ascension
08h 21m 09s
True Declination
0° 00' 00"
Sunlit
Object was in daylight at epoch
Visualization orbit readout
Latitude
Unknown
Longitude
Unknown
Altitude
Unknown
Speed
Unknown
Apparent Right ascension
Unknown
Apparent Declination
Unknown
Sunlit
N/A
Visualization observer readout
Local Sidereal Time
09:44:05
Azimuth
Unknown
Elevation
Unknown
Doppler factor
Unknown
Orbital elements
Apogee altitude
540.878 km
Perigee altitude
539.122 km
Semi-major axis
6,918.137 km
Eccentricity
0.00013
Inclination
53.2163°
RAAN
125.2889°
Arg. of periapsis
75.3503°
True anomaly
284.74884°
Mean anomaly
284.7629°
Eccentric anomaly
284.75587°
Mean motion
3.77189 °/min
Orbital period
95.44 mins
BSTAR
0.000039105
Loading maneuver chart data...
Computing Atmospheric mass density...
Loading historical data...
Loading historical data...
Loading historical data...
Loading historical data...
Loading historical data...
Loading historical data...
Loading historical data...

Documentation

Showing up to 5 results
|